TimeCST,TemperatureF,Dew PointF,Humidity,Sea Level PressureIn,VisibilityMPH,Wind Direction,Wind SpeedMPH,Gust SpeedMPH,PrecipitationIn,Events,Conditions,WindDirDegrees,DateUTC
12:15 AM,37.4,21.2,52,30.21,10.0,South,9.2,-,N/A,,Unknown,170,2012-12-13 06:15:00
12:35 AM,37.4,21.2,52,30.21,10.0,SSE,9.2,-,N/A,,Unknown,160,2012-12-13 06:35:00
12:55 AM,37.4,21.2,52,30.21,10.0,SSE,10.4,-,N/A,,Unknown,160,2012-12-13 06:55:00
1:15 AM,37.4,19.4,48,30.20,10.0,SSE,11.5,-,N/A,,Unknown,160,2012-12-13 07:15:00
1:35 AM,37.4,19.4,48,30.20,10.0,SSE,11.5,16.1,N/A,,Unknown,160,2012-12-13 07:35:00
1:55 AM,37.4,19.4,48,30.20,10.0,SSE,12.7,-,N/A,,Unknown,160,2012-12-13 07:55:00
2:15 AM,37.4,19.4,48,30.21,10.0,SSE,12.7,-,N/A,,Unknown,160,2012-12-13 08:15:00
2:35 AM,37.4,21.2,52,30.21,10.0,SSE,12.7,-,N/A,,Unknown,160,2012-12-13 08:35:00
2:55 AM,37.4,21.2,52,30.21,10.0,SSE,10.4,-,N/A,,Unknown,150,2012-12-13 08:55:00
3:15 AM,37.4,21.2,52,30.21,10.0,SSE,10.4,-,N/A,,Unknown,160,2012-12-13 09:15:00
3:35 AM,35.6,21.2,56,30.21,10.0,SSE,11.5,16.1,N/A,,Unknown,160,2012-12-13 09:35:00
3:55 AM,35.6,21.2,56,30.21,10.0,South,11.5,-,N/A,,Unknown,170,2012-12-13 09:55:00
4:15 AM,35.6,21.2,56,30.20,10.0,SSE,12.7,-,N/A,,Unknown,160,2012-12-13 10:15:00
4:35 AM,35.6,21.2,56,30.20,10.0,SSE,12.7,-,N/A,,Unknown,160,2012-12-13 10:35:00
4:55 AM,35.6,21.2,56,30.20,10.0,South,12.7,-,N/A,,Unknown,170,2012-12-13 10:55:00
5:15 AM,33.8,21.2,60,30.19,10.0,South,12.7,-,N/A,,Unknown,170,2012-12-13 11:15:00
5:35 AM,35.6,21.2,56,30.19,10.0,South,16.1,-,N/A,,Unknown,170,2012-12-13 11:35:00
5:55 AM,35.6,21.2,56,30.19,10.0,South,15.0,-,N/A,,Unknown,170,2012-12-13 11:55:00
6:15 AM,35.6,21.2,56,30.20,10.0,South,10.4,-,N/A,,Unknown,170,2012-12-13 12:15:00
6:35 AM,33.8,21.2,60,30.20,10.0,SSE,10.4,-,N/A,,Unknown,160,2012-12-13 12:35:00
6:55 AM,33.8,21.2,60,30.20,10.0,SSE,6.9,-,N/A,,Unknown,150,2012-12-13 12:55:00
7:15 AM,35.6,21.2,56,30.20,10.0,SSE,9.2,-,N/A,,Unknown,150,2012-12-13 13:15:00
7:35 AM,35.6,21.2,56,30.21,10.0,SSE,9.2,-,N/A,,Unknown,150,2012-12-13 13:35:00
7:55 AM,35.6,21.2,56,30.21,10.0,SSE,10.4,-,N/A,,Unknown,160,2012-12-13 13:55:00
8:15 AM,37.4,21.2,52,30.21,10.0,South,11.5,-,N/A,,Unknown,170,2012-12-13 14:15:00
8:35 AM,41.0,21.2,45,30.22,10.0,South,10.4,-,N/A,,Unknown,170,2012-12-13 14:35:00
8:55 AM,41.0,21.2,45,30.23,10.0,South,12.7,-,N/A,,Unknown,180,2012-12-13 14:55:00
9:15 AM,44.6,23.0,43,30.23,10.0,South,15.0,20.7,N/A,,Unknown,180,2012-12-13 15:15:00
9:55 AM,50.0,24.8,37,30.23,10.0,South,23.0,27.6,N/A,,Unknown,190,2012-12-13 15:55:00
10:15 AM,50.0,24.8,37,30.24,10.0,South,20.7,-,N/A,,Unknown,190,2012-12-13 16:15:00
10:35 AM,51.8,24.8,35,30.23,10.0,South,20.7,25.3,N/A,,Unknown,190,2012-12-13 16:35:00
10:55 AM,53.6,26.6,35,30.23,10.0,South,18.4,26.5,N/A,,Unknown,180,2012-12-13 16:55:00
11:15 AM,53.6,26.6,35,30.23,10.0,South,18.4,25.3,N/A,,Unknown,190,2012-12-13 17:15:00
11:35 AM,55.4,26.6,33,30.22,10.0,South,16.1,23.0,N/A,,Unknown,180,2012-12-13 17:35:00
11:55 AM,55.4,26.6,33,30.21,10.0,South,15.0,-,N/A,,Unknown,180,2012-12-13 17:55:00
12:15 PM,57.2,26.6,31,30.20,10.0,SSW,18.4,-,N/A,,Unknown,200,2012-12-13 18:15:00
12:35 PM,57.2,26.6,31,30.19,10.0,SSW,17.3,24.2,N/A,,Unknown,200,2012-12-13 18:35:00
12:55 PM,59.0,28.4,31,30.18,10.0,SSW,17.3,20.7,N/A,,Unknown,200,2012-12-13 18:55:00
1:15 PM,59.0,28.4,31,30.17,10.0,South,16.1,23.0,N/A,,Unknown,170,2012-12-13 19:15:00
1:35 PM,59.0,28.4,31,30.16,10.0,South,17.3,24.2,N/A,,Unknown,170,2012-12-13 19:35:00
1:55 PM,60.8,28.4,29,30.16,10.0,South,13.8,-,N/A,,Unknown,190,2012-12-13 19:55:00
2:15 PM,60.8,28.4,29,30.14,10.0,South,17.3,20.7,N/A,,Unknown,170,2012-12-13 20:15:00
2:35 PM,60.8,28.4,29,30.13,10.0,SSE,13.8,17.3,N/A,,Unknown,160,2012-12-13 20:35:00
2:55 PM,60.8,28.4,29,30.13,10.0,SSE,15.0,19.6,N/A,,Unknown,160,2012-12-13 20:55:00
3:15 PM,60.8,28.4,29,30.12,10.0,SSE,11.5,16.1,N/A,,Unknown,160,2012-12-13 21:15:00
3:35 PM,60.8,28.4,29,30.12,10.0,SSE,13.8,19.6,N/A,,Unknown,160,2012-12-13 21:35:00
3:55 PM,60.8,28.4,29,30.13,10.0,SSE,13.8,19.6,N/A,,Unknown,150,2012-12-13 21:55:00
4:35 PM,59.0,26.6,29,30.12,10.0,South,11.5,-,N/A,,Unknown,170,2012-12-13 22:35:00
7:15 PM,50.0,26.6,40,30.14,10.0,SSE,10.4,-,N/A,,Unknown,160,2012-12-14 01:15:00
7:35 PM,50.0,26.6,40,30.14,10.0,SSE,9.2,-,N/A,,Unknown,160,2012-12-14 01:35:00
7:55 PM,50.0,26.6,40,30.14,10.0,SSE,10.4,-,N/A,,Unknown,150,2012-12-14 01:55:00
8:15 PM,48.2,26.6,43,30.15,10.0,SSE,10.4,-,N/A,,Unknown,160,2012-12-14 02:15:00
8:35 PM,50.0,26.6,40,30.15,10.0,SSE,10.4,-,N/A,,Unknown,160,2012-12-14 02:35:00
8:55 PM,48.2,26.6,43,30.15,10.0,SSE,10.4,-,N/A,,Unknown,150,2012-12-14 02:55:00
9:15 PM,48.2,26.6,43,30.15,10.0,SSE,10.4,-,N/A,,Unknown,160,2012-12-14 03:15:00
9:35 PM,48.2,26.6,43,30.15,10.0,SSE,10.4,-,N/A,,Unknown,160,2012-12-14 03:35:00
9:55 PM,48.2,26.6,43,30.14,10.0,SSE,9.2,-,N/A,,Unknown,160,2012-12-14 03:55:00
10:15 PM,48.2,26.6,43,30.15,10.0,South,11.5,-,N/A,,Unknown,170,2012-12-14 04:15:00
10:35 PM,50.0,24.8,37,30.15,10.0,South,12.7,17.3,N/A,,Unknown,170,2012-12-14 04:35:00
10:55 PM,48.2,24.8,40,30.15,10.0,SSE,12.7,17.3,N/A,,Unknown,160,2012-12-14 04:55:00
11:15 PM,48.2,24.8,40,30.14,10.0,SSE,11.5,-,N/A,,Unknown,160,2012-12-14 05:15:00
11:35 PM,48.2,24.8,40,30.15,10.0,SSE,15.0,20.7,N/A,,Unknown,160,2012-12-14 05:35:00